Location: Nemiskam
(49.4820°N, 111.2775°W)
Time: 09:21:55
(UTC+00:00)

Envisat - Pass Details

Date: 01 December 2022
Orbit: 763 x 765 km, 98.2° (Epoch: 28 January)

Event Time Altitude Azimuth Distance (km) Brightness Sun altitude
Rises 00:11:40 0° 216° (SW) 3,221 7.5 -6.9°
Reaches altitude 10° 00:15:02 10° 240° (WSW) 2,302 7.2 -7.4°
Maximum altitude 00:17:48 15° 273° (W) 1,999 6.2 -7.8°
Drops below altitude 10° 00:20:36 10° 307° (NW) 2,312 5.9 -8.2°
Sets 00:24:01 0° 331° (NNW) 3,245 6.3 -8.7°
